Location: Diaro
(12.6167°N, 12.8833°W)
Time: 20:59:37
(UTC+00:00)

Daily predictions for brighter satellites

Satellite Brightness Start Highest point End
(mag) Time Altitude Azimuth Time Altitude Azimuth Time Altitude Azimuth
Maqsat-H 4.4 18:12:08 10° W 18:18:19 68° S 19:12:16 10° E
Maqsat-H 4.4 18:12:08 10° W 18:18:20 68° S 19:12:16 10° E
Cosmos 304 Rocket 4.1 18:39:11 10° NNW 18:43:58 75° WSW 18:48:45 10° S
Okean 1 3.7 18:41:59 10° SSE 18:45:46 42° E 18:49:33 10° NNE
ATLAS 3B CENTAUR R/B 4.1 18:41:38 10° SSW 18:46:45 30° SE 18:57:01 10° E
Intelsat 5-3 Rocket 4.1 18:42:02 10° WNW 18:48:51 42° SSW 18:52:02 10° SE
Ariane H10 4.1 18:49:12 10° SSW 18:50:02 11° S 18:50:54 10° SSE
YAOGAN 1 4.2 18:48:20 10° ESE 18:50:35 14° ENE 18:52:51 10° NE
STARLINK-80 4.3 18:49:22 10° SW 18:53:01 47° NW 18:56:41 10° NNE
ATLAS 3B R/B 2.9 18:47:52 10° NNW 18:54:45 82° WSW 19:01:54 10° SSE
Cosmos 1428 Rocket 4.4 18:49:10 10° S 18:55:15 72° E 19:01:22 10° N
Cosmos 1908 Rocket 3.8 18:52:54 10° NNE 18:57:03 45° E 19:01:11 10° SSE
Okean 1-7 3.4 18:54:42 10° S 18:58:57 69° W 19:03:14 10° N
Abrixas rocket 4.4 18:57:48 10° W 18:59:57 18° NW 19:02:06 10° N
COSMO-SKYMED 1 3.4 18:55:58 10° N 19:00:10 53° WNW 19:04:23 10° SSW
Cosmos 1943 4.4 18:56:48 10° SSE 19:01:10 23° ESE 19:05:14 11° NE
Gbstr 26 Del rocket 4.3 18:54:35 10° SSW 19:02:30 80° SE 19:09:15 10° NE
USA 116 4.2 18:57:27 10° NNE 19:02:34 85° ESE 19:07:10 10° S
Cosmos 1666 2.8 18:59:23 10° N 19:02:59 49° E 19:06:36 10° SSE
STARLINK-61 4.1 19:02:07 10° SSW 19:05:52 40° SE 19:08:56 14° ENE
Cosmos 2026 Rocket 4.5 19:06:54 10° SSW 19:12:56 64° W 19:18:55 10° N
Cosmos 676 Rocket 3.9 19:09:38 10° SSW 19:14:49 87° ESE 19:20:00 10° NNE
SL-16 R/B 4.0 19:10:22 10° SW 19:15:20 31° WNW 19:20:19 10° N
Centaur AC-102 3.3 19:12:16 10° WNW 19:17:21 82° N 19:23:26 12° E
NOAA 12 4.5 19:12:09 10° S 19:17:27 70° WSW 19:22:43 10° NNW
Cosmos 2278 Rocket 2.1 19:13:01 10° NNW 19:18:40 76° ENE 19:24:17 10° SSE
SL-8 R/B 4.0 19:14:58 10° NNW 19:19:35 46° NE 19:24:12 10° ESE
Cosmos 1603 3.8 19:16:22 10° S 19:21:54 58° ESE 19:27:10 12° NNE
Meteor 1-19 Rocket 4.1 19:16:27 10° S 19:22:08 82° E 19:27:39 10° N
NOSS 2 (A) 4.1 19:20:15 10° NNW 19:22:45 68° ENE 19:25:43 10° SSE
ARIANE 5 R/B 4.1 19:19:57 10° SW 19:23:08 30° SSE 19:34:06 10° E
ERBS 2.4 19:20:12 10° NW 19:23:33 76° WSW 19:26:55 10° SSE
Cosmos 1954 Rocket 4.1 19:19:24 10° SSW 19:24:32 78° WNW 19:29:41 10° N
STARLINK-39 4.5 19:21:01 10° S 19:24:36 31° ESE 19:26:03 24° E
Cosmos 1743 3.3 19:22:23 10° NNE 19:25:57 35° E 19:29:32 10° SSE
STARLINK 4.4 19:22:38 10° S 19:26:16 33° ESE 19:27:41 25° E
STARLINK-42 4.2 19:24:17 10° SSW 19:28:01 37° ESE 19:29:27 27° E
STARLINK-21 4.2 19:25:51 10° SSW 19:29:34 37° ESE 19:30:52 28° E
Meteor 2-4 Rocket 3.9 19:23:57 10° S 19:29:44 57° E 19:35:30 10° NNE
Cosmos 2221 Rocket 3.7 19:26:04 10° S 19:30:35 78° W 19:35:03 10° N
Cosmos 1975 4.2 19:32:33 21° ESE 19:32:33 21° ESE 19:34:42 10° SE
STARLINK-45 3.9 19:27:33 10° SSW 19:31:24 46° SE 19:32:50 31° ENE
STARLINK-75 3.7 19:29:13 10° SSW 19:33:08 53° ESE 19:34:35 33° ENE
YAOGAN 6 3.0 19:30:07 10° S 19:33:33 60° W 19:37:00 10° NNW
STARLINK-76 4.0 19:30:41 10° SSW 19:34:30 43° ESE 19:35:38 34° E
IRIDIUM 103 4.5 19:29:57 10° SSE 19:34:58 50° E 19:39:30 12° NNE
SWIFT 3.5 19:31:52 10° WNW 19:35:31 28° N 19:36:42 24° NNE
STARLINK 3.9 19:32:18 10° SSW 19:36:09 46° SE 19:37:14 36° E
Cosmos 1939 Rocket 3.5 19:33:54 10° SE 19:37:33 34° E 19:37:33 34° E
STARLINK-32 3.8 19:33:56 10° SSW 19:37:48 48° SE 19:38:50 38° E
STARLINK-40 3.8 19:35:34 10° SSW 19:39:28 51° SE 19:40:26 40° E
STARLINK-44 3.7 19:37:11 10° SSW 19:41:06 54° SE 19:42:00 43° ENE
Cosmos 1655 Rocket 4.0 19:34:46 10° S 19:41:09 86° W 19:47:29 10° N
STARLINK-37 3.5 19:38:40 10° SSW 19:42:37 61° SE 19:43:33 46° ENE
Cosmos 1741 Rocket 4.2 19:38:06 10° S 19:43:11 49° ESE 19:45:12 32° NE
STARLINK-36 3.6 19:40:25 10° SSW 19:44:22 60° SE 19:45:10 48° ENE
STARLINK-41 3.6 19:40:28 10° SSW 19:44:26 59° SE 19:45:12 48° ENE
STARLINK-64 3.5 19:42:14 10° SSW 19:46:14 63° SE 19:46:58 51° ENE
Cosmos 1417 Rocket 4.5 19:41:45 10° N 19:47:44 55° E 19:53:45 10° SSE
Cosmos 921 Rocket 3.4 19:48:51 42° E 19:48:51 42° E 19:52:30 10° SSE
Sich 1 Rocket 3.4 19:44:28 10° N 19:48:49 81° E 19:53:12 10° S
STARLINK-35 3.4 19:45:21 10° SSW 19:49:21 71° SE 19:49:58 58° ENE
GPS 2-12 Rocket1 3.1 19:45:08 10° WNW 19:49:34 70° SSW 19:51:20 35° SE
STARLINK-51 3.4 19:47:00 10° SSW 19:51:00 76° SE 19:51:34 62° ENE
Cosmos 1782 Rocket 4.0 19:47:13 10° NNW 19:51:29 62° W 19:55:45 10° S
Okean 2 Rocket 3.9 19:52:58 35° ESE 19:52:58 35° ESE 19:56:05 10° SSE
Atlas Centaur 2 3.2 19:43:57 10° NW 19:51:59 56° NNE 19:56:03 32° E
STARLINK-30 3.4 19:48:39 10° SSW 19:52:40 80° SE 19:53:10 65° ENE
IRIDIUM 106 4.2 19:48:00 10° S 19:53:13 83° E 19:57:43 14° N
STARLINK-33 3.4 19:50:18 10° SSW 19:54:18 84° SE 19:54:45 69° NE
Okean 3 4.4 19:50:28 10° SSW 19:54:32 47° W 19:58:34 10° N
GEOS 3 Rocket 3.6 19:52:33 31° NNE 19:55:10 87° ESE 20:00:30 10° SSW
STARLINK-50 3.4 19:51:56 10° SW 19:55:57 89° SE 19:56:21 72° NE
STARLINK 3.4 19:51:57 10° SSW 19:55:58 74° SE 19:56:11 72° E
STARLINK-56 3.4 19:55:15 10° SW 19:59:15 83° NW 19:59:31 76° N
CSL-04 Rocket 3.7 19:55:04 10° S 20:00:21 78° WSW 20:05:37 10° NNW
Starlink (trailer) 3.4 19:56:54 10° SW 20:00:54 79° NW 20:01:07 75° NNW
Meteor 1-13 Rocket 4.1 19:56:37 10° S 20:02:25 87° E 20:05:44 26° N
STARLINK-38 3.5 19:58:34 10° SW 20:02:34 74° NW 20:02:43 73° NNW
Cosmos 1850 Rocket 3.9 19:58:16 10° SSW 20:03:28 89° W 20:05:20 41° NNE
STARLINK-65 3.6 20:00:12 10° SW 20:04:12 71° NW 20:04:17 70° NW
SEDSat Delta rocket 3.9 19:59:43 10° WSW 20:06:32 87° NNW 20:08:26 51° NE
STARLINK-69 3.9 20:05:16 10° SW 20:09:10 57° WNW 20:09:10 57° WNW
GPS 2-18 Rocket1 4.2 20:06:00 10° WNW 20:08:28 35° NW 20:08:28 35° NW
Lacrosse 5 3.6 20:05:59 10° WSW 20:10:15 27° NW 20:12:53 18° NNW
STARLINK-66 4.0 20:06:52 10° SW 20:10:40 56° WNW 20:10:40 56° WNW
CZ-4 R/B 3.7 20:09:48 10° SSW 20:13:05 24° W 20:16:18 10° NW
Cosmos 1900 4.4 20:08:16 10° NNW 20:13:07 72° WSW 20:17:59 10° SSE
STARLINK-70 4.4 20:11:54 10° SW 20:15:28 46° WNW 20:15:28 46° WNW
CZ-4C R/B 3.3 20:12:17 10° SW 20:16:18 30° WNW 20:18:24 22° NNW
USA 267 3.3 20:12:50 10° SSE 20:19:22 76° SW 20:25:53 10° NW
Cosmos 1674 Rocket 4.3 20:17:27 10° SSW 20:21:46 50° W 20:22:28 45° NW
Meteosat 1 Rocket2 4.4 20:13:58 10° SW 20:22:56 54° SSE 20:23:51 50° SE
GPS 2-14 Rocket1 4.1 20:19:21 10° WSW 20:21:42 35° WSW 20:21:42 35° WSW
CZ-3 Stage 3 3.7 20:21:44 10° SW 20:25:05 73° SSE 20:25:05 73° SSE
ADEOS Rocket 3.4 20:24:30 30° NNW 20:27:05 54° WNW 20:32:41 10° SSW
Meteor 1-23 Rocket 4.5 20:24:57 10° S 20:29:28 58° SSE 20:29:28 58° SSE
CZ-3B R/B 3.1 20:25:19 10° W 20:31:29 47° NNW 20:32:46 44° N
Ariane Rocket 4.4 20:28:37 10° S 20:30:58 28° S 20:30:58 28° S
Ariane H10-3 4.3 20:34:16 10° WSW 20:38:13 53° S 20:40:20 44° SE
ATLAS 3B CENTAUR R/B 4.1 21:04:17 10° WSW 21:13:27 78° NNW 21:15:24 70° NNE
Atlas Centaur 2 4.2 21:33:43 10° WNW 21:38:44 37° W 21:38:44 37° W
ATLAS 5 CENTAUR R/B 4.5 22:00:42 10° W 22:09:47 57° S 23:03:44 10° ESE
